This is the latest recevied weather packets stored in our database for station/object KJ5FA-10. If no packets are shown the sender has not sent any weather packets the latest 10 day(s).
| Time | Temp. | Humidity | Pressure | Rain* | Wind** | Luminosity | Snow |
|---|---|---|---|---|---|---|---|
| 1777714776 | 9.44° C | 94% | 1019.6 hPa | 0 mm | - | - | - |
| 1777713877 | 9.44° C | 94% | 1019.4 hPa | 0 mm | - | - | - |
| 1777712976 | 10° C | 94% | 1019.5 hPa | 0 mm | - | - | - |
| 1777712075 | 10° C | 93% | 1019.4 hPa | 0 mm | - | - | - |
| 1777711175 | 10° C | 91% | 1019.2 hPa | 0 mm | - | - | - |
| 1777710276 | 10.56° C | 91% | 1019.4 hPa | 0 mm | - | - | - |
| 1777709376 | 10.56° C | 90% | 1019.1 hPa | 0 mm | - | - | - |
| 1777708476 | 10.56° C | 88% | 1019.1 hPa | 0 mm | - | - | - |
| 1777707577 | 11.11° C | 87% | 1019.4 hPa | 0 mm | - | - | - |
| 1777706676 | 11.67° C | 86% | 1019.3 hPa | 0 mm | - | - | - |
| 1777705956 | 11.67° C | 85% | 1019.2 hPa | 0 mm | - | - | - |
| 1777705836 | 11.67° C | 84% | 1019.5 hPa | 0 mm | - | - | - |
| 1777704874 | 12.22° C | 83% | 1019.4 hPa | 0 mm | - | - | - |
| 1777703974 | 12.22° C | 81% | 1019.4 hPa | 0 mm | - | - | - |
| 1777703074 | 12.78° C | 79% | 1019.6 hPa | 0 mm | - | - | - |
| 1777702174 | 12.78° C | 77% | 1019.5 hPa | 0 mm | - | - | - |
| 1777701275 | 12.78° C | 78% | 1019.6 hPa | 0 mm | - | - | - |
| 1777700375 | 12.78° C | 79% | 1019.4 hPa | 0 mm | - | - | - |
| 1777699475 | 12.78° C | 78% | 1019.4 hPa | 0 mm | - | - | - |
| 1777698575 | 12.78° C | 77% | 1019.5 hPa | 0 mm | - | - | - |
| 1777697675 | 12.78° C | 79% | 1019.6 hPa | 0 mm | - | - | - |
| 1777696777 | 12.78° C | 76% | 1019.4 hPa | 0 mm | - | - | - |
| 1777695875 | 12.78° C | 72% | 1019.6 hPa | 0 mm | - | - | - |
| 1777694975 | 13.33° C | 69% | 1019.5 hPa | 0 mm | - | - | - |
| 1777694075 | 13.89° C | 65% | 1019.2 hPa | 0 mm | - | - | - |
* Rain latest hour (hover to see other rain measurements)
** Current wind speed in m/s (hover to see current wind gust speed)